Home   Weather   Wals-Siezenheim   Past weeks
Flag for Austria

Past Weather in Wals-Siezenheim, Salzburg, Austria — Yesterday and Last 2 Weeks

Now
73 °F

Scattered clouds.


Feels Like: 77 °F
Forecast: 77 / 59 °F
Wind: 12 mph from Southeast

Location: Salzburg-Flughafen

Current Time: Jun 19, 2019 at 9:09:34 pm

Latest Report: Jun 19, 2019 at 8:20 pm


Visibility: N/A

Pressure: 29.86 "Hg

Humidity: 53%

Dew Point: 55 °F

Location of Wals-SiezenheimLocation

Past Weather in Wals-Siezenheim — Graph

°F

Wals-Siezenheim Temperature Yesterday

Maximum temperature yesterday: 84 °F (at 3:20 pm)
Minimum temperature yesterday: 55 °F (at 5:20 am)
Average temperature yesterday: 72 °F

High & Low Weather Summary for the Past Weeks

 TemperatureHumidityPressure
High93 °F (Jun 14, 4:50 pm)94% (Jun 11, 2:20 am)30.30 "Hg (Jun 11, 2:20 am)
Low52 °F (Jun 9, 4:20 am)24% (Jun 12, 12:20 pm)29.68 "Hg (Jun 5, 6:50 pm)
Average70 °F62%29.97 "Hg
* Reported Jun 4 7:20 pm — Jun 19 7:20 pm, Wals-Siezenheim. Weather by CustomWeather, © 2019

Note: Actual official high and low records may vary slightly from our data, if they occured in-between our weather recording intervals... More about our weather records

Advertising

Wals-Siezenheim Weather History for the Previous 24 Hours

Scroll right to see more
 ConditionsComfort  
Time TempWeatherWind HumidityBarometerVisibility
7:20 pm
Wed, Jun 19
75 °FScattered clouds.14 mph54%29.86 "HgN/A
6:50 pm77 °FScattered clouds.13 mph47%29.86 "HgN/A
6:20 pm77 °FBroken clouds.13 mph51%29.86 "HgN/A
5:50 pm79 °FBroken clouds.12 mph45%29.86 "HgN/A
5:20 pm81 °FBroken clouds.9 mph37%29.86 "HgN/A
4:50 pm81 °FPartly sunny.7 mph37%29.86 "HgN/A
4:20 pm81 °FPartly sunny.5 mph39%29.89 "HgN/A
3:50 pm84 °FScattered clouds.9 mph37%29.89 "HgN/A
3:20 pm82 °FScattered clouds.3 mph40%29.89 "HgN/A
2:50 pm82 °FScattered clouds.6 mph42%29.89 "HgN/A
2:20 pm82 °FScattered clouds.8 mph42%29.89 "HgN/A
1:50 pm82 °FScattered clouds.7 mph40%29.89 "HgN/A
1:20 pm81 °FScattered clouds.3 mph42%29.92 "HgN/A
12:50 pm79 °FPartly sunny.2 mph51%29.92 "HgN/A
12:20 pm79 °FPartly sunny.3 mph45%29.92 "HgN/A
11:20 am75 °FBroken clouds.3 mph54%29.92 "HgN/A
10:50 am75 °FPartly sunny.5 mph50%29.95 "HgN/A
10:20 am73 °FPartly sunny.5 mph57%29.95 "HgN/A
9:50 am73 °FPartly sunny.2 mph53%29.95 "HgN/A
9:20 am70 °FPartly sunny.6 mph64%29.95 "HgN/A
8:50 am68 °FPartly sunny.5 mph69%29.95 "HgN/A
8:20 am66 °FPartly sunny.9 mph73%29.95 "HgN/A
7:50 am66 °FPartly sunny.8 mph68%29.95 "HgN/A
7:20 am68 °FPartly sunny.9 mph64%29.95 "HgN/A
6:50 am68 °FPartly sunny.12 mph64%29.95 "HgN/A
6:20 am66 °FPartly sunny.13 mph68%29.95 "HgN/A
5:50 am64 °FScattered clouds.13 mph73%29.95 "HgN/A
5:20 am63 °FClear.10 mph73%29.95 "HgN/A
4:50 am64 °FPassing clouds.13 mph73%29.95 "HgN/A
4:20 am63 °FPassing clouds.12 mph77%29.95 "HgN/A
3:50 am63 °FPassing clouds.7 mph77%29.95 "HgN/A
3:20 am61 °FPassing clouds.3 mph83%29.98 "HgN/A
2:50 am63 °FPassing clouds.5 mph77%29.98 "HgN/A
2:20 am64 °FPassing clouds.2 mph73%29.98 "HgN/A
1:50 am64 °FClear.6 mph73%29.98 "HgN/A
1:20 am64 °FClear.7 mph73%29.95 "HgN/A
12:20 am68 °FClear.10 mph64%29.95 "HgN/A
11:50 pm
Tue, Jun 18
68 °FClear.7 mph64%29.95 "HgN/A
11:20 pm68 °FClear.3 mph69%29.95 "HgN/A
10:50 pm68 °FClear.6 mph69%29.95 "Hg10 mi
10:20 pm72 °FClear.5 mph61%29.95 "Hg10 mi
9:50 pm72 °FPassing clouds.6 mph65%29.95 "HgN/A
9:20 pm75 °FPassing clouds.2 mph57%29.95 "HgN/A
Weather by CustomWeather, © 2019

See weather overview